Location: Casteau
(50.5142°N, 4.0161°E)
Time: 00:22:25
(UTC+00:00)

S-56A Canister/Altair - Pass Details

Date: 04 August 2021
Orbit: 632 x 2500 km, 38.9° (Epoch: 19 September)

Event Time Altitude Azimuth Distance (km) Brightness Sun altitude
Rises 11:26:16 0° 186° (S) 4,923 12.1 56.3°
Reaches altitude 10° 11:30:42 10° 168° (SSE) 4,265 12.1 56.4°
Maximum altitude 11:37:51 18° 131° (SE) 4,047 11.9 56.5°
Drops below altitude 10° 11:46:05 10° 95° (E) 5,035 11.9 56.6°
Sets 11:52:00 0° 80° (E) 6,166 12.1 56.6°
